Location: Livorno
(43.5500°N, 10.3170°E)
Time: 09:29:49
(UTC+01:00)

Envisat - Visible Passes

Search period start: 27 October 2020 00:00
Search period end: 06 November 2020 00:00
Orbit: 764 x 766 km, 98.1° (Epoch: 26 October)

Date Brightness Start Highest point End Pass type
(mag) Time Alt. Az. Time Alt. Az. Time Alt. Az.
28 Oct 4.7 05:44:44 10° NNE 05:49:28 37° E 05:54:10 10° SSE visible
28 Oct 6.0 18:41:05 10° SW 18:44:34 19° W 18:48:05 10° NW visible
29 Oct 6.0 05:08:59 10° NE 05:12:21 18° E 05:15:42 10° SE visible
29 Oct 4.6 18:02:44 10° SSW 18:07:28 39° W 18:12:15 10° NNW visible
30 Oct 3.6 06:09:55 10° NNE 06:14:59 65° E 06:20:01 10° S visible
30 Oct 6.6 19:09:47 10° W 19:10:20 10° W 19:10:52 10° W visible
31 Oct 5.1 05:33:34 10° NE 05:38:01 30° E 05:42:27 10° SSE visible
31 Oct 5.6 18:29:05 10° SW 18:33:05 23° W 18:37:07 10° NW visible
01 Nov 6.3 04:58:18 10° ENE 05:00:51 14° E 05:03:24 10° ESE visible
01 Nov 4.1 17:51:08 10° S 17:56:03 50° W 18:01:00 10° NNW visible
02 Nov 4.0 05:58:37 10° NNE 06:03:35 51° E 06:08:31 10° S visible
02 Nov 6.3 18:56:23 10° WSW 18:58:48 13° W 19:01:14 10° WNW visible
03 Nov 5.5 05:22:29 10° NE 05:26:34 24° E 05:30:37 10° SSE visible
03 Nov 5.2 18:17:14 10° SSW 18:21:37 29° W 18:26:02 10° NW visible
04 Nov 6.5 04:48:18 10° ENE 04:49:19 11° E 04:50:20 10° E visible
04 Nov 3.1 06:23:56 10° NNE 06:29:03 89° ESE 06:34:08 10° SSW visible
04 Nov 3.6 17:39:37 10° S 17:44:39 63° W 17:49:42 10° NNW visible
05 Nov 4.5 05:47:22 10° NNE 05:52:10 41° E 05:56:55 10° SSE visible
05 Nov 6.0 18:44:02 10° SW 18:47:17 17° W 18:50:34 10° NW visible
